TIME,DELAY(SENSOR),PRES,OXYGEN,RAWTEMP,T(OPTODE),TCPHASE,FLUOR,BETA(BETA700),BETA(BETA412),BETA(BETA440),CDOM,C(CSC),ED(ED412.40),ED(ED444.00),ED(ED489.70),ED(ED554.30),LU(LU411.80),LU(LU443.40),LU(LU489.60),LU(LU554.10),COMP,TILTX,TILTY,CHECK
1347594520,5810,845.7399902343750000,45.5526008605957000,663.1987915039062000,4.5226058959960940,54.2129402160644500,53,100,86,79,80,15226,2147759030,2147421568,2148009792,2147874240,2147641590,2147066505,2148261211,2147195995,2302,5,13,37885
1347598116,5812,938.7700195312500000,48.9733390808105500,672.1873168945312000,4.2259178161621090,53.8359985351562500,53,99,84,78,81,15233,2147758884,2147421613,2148009197,2147874075,2147642468,2147067904,2148256557,2147199323,199,5,13,49753
1347601716,5809,948.3400268554688000,49.1317100524902340,672.3452148437500000,4.2206940650939940,53.8194885253906250,53,101,88,80,80,15226,2147759305,2147417947,2148008402,2147875547,2147644416,2147064585,2148262089,2147199341,351,5,13,20135
1347605316,5809,974.6199951171875000,50.5758285522460940,676.6743774414062000,4.0774631500244140,53.6756782531738300,53,99,89,80,81,15226,2147761307,2147423213,2148010523,2147876726,2147643465,2147064320,2148260388,2147198765,64,5,13,24998
1347608916,5805,971.9000244140625000,50.2900199890136700,677.2526855468750000,4.0583128929138180,53.7191886901855500,53,99,88,79,82,15224,2147760182,2147420461,2148011885,2147875337,2147642020,2147065453,2148258294,2147199497,120,5,13,11336
1347612516,5811,979.1599731445312000,50.3457107543945300,677.7291870117188000,4.0425300598144530,53.7225608825683600,53,100,88,78,81,15226,2147761024,2147419730,2148009828,2147872612,2147640283,2147063762,2148253888,2147195977,861,5,13,32986
1347616116,5809,976.6500244140625000,50.3465194702148440,678.0136718750000000,4.0331101417541500,53.7259216308593750,53,100,88,79,81,15223,2147763264,2147421165,2148012077,2147875638,2147645394,2147062125,2148259026,2147197001,3407,4,13,38740
1347619716,5810,985.8599853515625000,50.4242515563964840,678.0991210937500000,4.0302810668945310,53.7182388305664060,53,98,86,79,82,15219,2147764361,2147418240,2148010249,2147876178,2147646125,2147060580,2148260516,2147198500,276,4,13,37352
1347623316,5809,987.7500000000000000,50.1385498046875000,677.5360717773438000,4.0489268302917480,53.7445487976074200,52,98,87,79,82,15223,2147758189,2147420004,2148009910,2147875291,2147646473,2147057764,2148258185,2147197714,169,5,13,35554
1347626916,5808,1004.5900268554688000,49.8255081176757800,675.8541870117188000,4.1046161651611330,53.7677803039550800,52,99,86,79,83,15218,2147759506,2147420498,2148009152,2147875556,2147648329,2147058925,2148256649,2147200429,453,5,13,46002
1347630516,5804,1003.2199707031250000,49.0517692565918000,674.9030761718750000,4.1360931396484375,53.8599395751953100,53,99,85,77,81,15198,2147760237,2147421970,2148008457,2147876324,2147644224,2147065325,2148260845,2147196041,3472,4,13,47843
1347634116,5809,997.2600097656250000,49.3123893737793000,675.7484741210938000,4.1081137657165530,53.8386192321777340,52,98,88,79,81,15220,2147762349,2147422811,2148007140,2147874139,2147643008,2147064384,2148256054,2147199433,19,5,13,41711
1347637716,5808,1001.5900268554688000,49.2174110412597660,675.7821044921875000,4.1070017814636230,53.8483695983886700,53,98,87,79,81,15219,2147758555,2147421824,2148009188,2147874157,2147649490,2147062665,2148255680,2147197421,3585,5,13,41891
1347641316,5805,1000.6300048828125000,49.3452491760253900,675.4533081054688000,4.1178841590881350,53.8284492492675800,52,98,86,78,81,15218,2147761014,2147423899,2148008896,2147872740,2147644269,2147060726,2148256566,2147199542,3235,5,13,42164
1347644916,5812,993.6900024414062000,49.3620491027832000,676.1749877929688000,4.0939979553222660,53.8398208618164060,52,104,84,80,82,15203,2147758336,2147420278,2148007360,2147876516,2147643318,2147063698,2148254418,2147194724,101,4,13,26627
1347648516,5810,987.5599975585938000,49.3634796142578100,676.5579223632812000,4.0813221931457520,53.8372192382812500,52,99,88,79,81,15215,2147760585,2147420937,2148007862,2147874660,2147647350,2147065746,2148260516,2147199625,3234,4,13,65297
1347652116,5807,997.9600219726562000,50.0117797851562500,677.7133789062500000,4.0430550575256350,53.7658500671386700,52,101,89,79,81,15219,2147759826,2147422454,2148007789,2147872091,2147644763,2147061814,2148260096,2147196900,3595,4,13,37740
1347655716,5805,999.8300170898438000,49.2064514160156250,676.8869018554688000,4.0704269409179690,53.8696784973144500,53,98,89,81,83,15214,2147759250,2147422729,2148009353,2147876059,2147646390,2147061805,2148258102,2147197339,3343,5,13,54377
1347659316,5811,991.5399780273438000,49.3469696044921900,677.6226196289062000,4.0460638999938965,53.8539199829101560,52,98,88,79,82,15216,2147758939,2147422875,2148008658,2147874514,2147645275,2147061421,2148256530,2147198381,3228,5,13,65315
1347662916,5809,994.1300048828125000,49.2896614074707000,678.1389160156250000,4.0289611816406250,53.8704185485839840,53,100,85,79,82,15216,2147762157,2147420845,2148012278,2147873718,2147643190,2147059437,2148261403,2147199899,264,5,13,15373
1347666516,5804,994.3300170898438000,48.9583396911621100,678.3969726562500000,4.0204119682312010,53.9207801818847660,53,101,90,78,81,15211,2147758345,2147417810,2148007314,2147874432,2147645476,2147061677,2148258340,2147198674,81,5,13,2075
1347670116,5809,991.7899780273438000,49.2011184692382800,678.6317138671875000,4.0126338005065920,53.8917503356933600,53,100,85,80,82,15213,2147762029,2147422610,2148010276,2147876973,2147648073,2147063003,2148261458,2147199387,353,5,13,64556
1347673716,5810,990.7999877929688000,49.6001205444335940,678.9517822265625000,4.0020279884338380,53.8378105163574200,52,99,88,79,81,15210,2147760731,2147423734,2148007670,2147874075,2147647835,2147063908,2148259986,2147198171,2973,4,13,64040
1347677316,5808,993.9799804687500000,50.1938781738281250,679.1516723632812000,3.9954049587249756,53.7598381042480500,52,102,85,79,83,15214,2147760073,2147421769,2148010505,2147874377,2147646052,2147065170,2148264493,2147198756,3108,5,13,42786
1347680916,5812,998.1199951171875000,50.3227005004882800,679.1055297851562000,3.9969370365142822,53.7437591552734400,53,100,90,78,81,15210,2147763072,2147421933,2148009499,2147872996,2147645028,2147064091,2148263323,2147203401,3085,4,13,41718
1347684516,5806,994.7899780273438000,49.4794502258300800,678.4755859375000000,4.0178050994873050,53.8482093811035160,53,98,87,79,81,15209,2147760265,2147421988,2148011812,2147873654,2147644809,2147066258,2148263104,2147200192,3597,4,13,64093
1347688116,5810,1004.7199707031250000,49.5162010192871100,677.0017089843750000,4.0666260719299320,53.8273506164550800,52,98,89,79,82,15210,2147761856,2147422802,2148011309,2147873124,2147643273,2147066550,2148262134,2147200438,3211,4,13,10298
1347691716,5810,991.7899780273438000,49.8791198730468750,679.0841064453125000,3.9976439476013184,53.8011512756347660,52,99,88,79,81,15210,2147763154,2147424960,2148009033,2147870756,2147645485,2147063378,2148264493,2147194907,3590,5,13,33052
1347695316,5806,1001.7299804687500000,50.1460418701171900,678.8286743164062000,4.0061068534851070,53.7607688903808600,52,99,88,79,81,15202,2147763620,2147421284,2148009499,2147873234,2147645458,2147061650,2148262555,2147201920,3238,5,13,27505
1347698916,5809,1001.5100097656250000,50.2117385864257800,678.8834838867188000,4.0042929649353030,53.7528305053710940,52,98,88,78,82,15211,2147762532,2147421659,2148009206,2147874962,2147645677,2147061385,2148263058,2147192192,3338,4,13,32979
1347702516,5809,996.7199707031250000,48.9199714660644500,678.5656127929688000,4.0148258209228520,53.9288902282714840,52,97,87,79,82,15138,2147762066,2147422061,2148011145,2147875328,2147644516,2147068041,2148261284,2147201243,3571,5,13,26507
1347706116,5808,989.7500000000000000,50.2097702026367200,680.5206298828125000,3.9500310420989990,53.7761116027832000,52,99,90,80,82,15137,2147760768,2147422738,2148007332,2147875273,2147647963,2147059538,2148259373,2147200905,3480,5,13,58409
1347709716,5810,1008.4299926757812000,50.3442001342773440,678.9572143554688000,4.0018520355224610,53.7364997863769500,52,99,89,79,81,15096,2147760338,2147425865,2148007003,2147872310,2147645549,2147060169,2148263917,2147196288,2890,5,13,33754
1347713316,5809,1003.6900024414062000,49.7536811828613300,677.8480224609375000,4.0385990142822270,53.8022804260253900,53,98,89,80,82,15092,2147760310,2147419785,2148009316,2147873152,2147648027,2147062272,2148262189,2147198180,217,5,13,17278
1347716916,5806,1001.8599853515625000,49.5423583984375000,678.6978149414062000,4.0104451179504395,53.8441581726074200,53,100,85,79,82,15090,2147759195,2147421961,2148011666,2147875913,2147647003,2147061403,2148261714,2147197787,3586,5,13,60142
1347720516,5811,1007.1900024414062000,49.7347106933593750,677.0014038085938000,4.0666351318359375,53.7939414978027340,52,99,88,81,82,15090,2147754861,2147421110,2148010349,2147875355,2147646592,2147060681,2148263168,2147199515,3500,4,13,46001
1347724116,5809,998.2899780273438000,49.2655410766601560,676.9987792968750000,4.0667209625244140,53.8591690063476560,52,99,89,78,81,15088,2147760521,2147422006,2148008905,2147874907,2147644644,2147061321,2148262838,2147202249,2825,4,13,14900
1347727716,5811,1007.9500122070312000,49.7524299621582000,677.0756835937500000,4.0641732215881350,53.7949790954589840,52,98,91,79,81,15087,2147761417,2147422134,2148011492,2147872182,2147643748,2147066240,2148259849,2147201444,578,4,13,9557
1347731316,5809,1009.5599975585938000,48.8292884826660160,676.9390258789062000,4.0687007904052730,53.9166297912597660,52,99,87,78,83,15085,2147758546,2147421760,2148009161,2147873334,2147646573,2147067501,2148264740,2147198939,247,5,13,63161
1347734916,5812,1002.6199951171875000,49.4196090698242200,677.8754272460938000,4.0376892089843750,53.8480606079101560,53,99,87,79,82,15087,2147760960,2147421549,2148010633,2147870482,2147645705,2147065910,2148260809,2147198153,3178,5,13,1650
1347738516,5811,1004.3900146484375000,49.2240600585937500,677.7772827148438000,4.0409369468688965,53.8765182495117200,52,101,86,79,82,15082,2147758701,2147420342,2148009929,2147872219,2147645659,2147067017,2148262994,2147199725,321,5,13,42
1347738655,5808,1005.5599975585938000,49.1835517883300800,677.7175903320312000,4.0429167747497560,53.8831901550293000,52,97,89,79,82,15257,2147755858,2147418852,2148011081,2147873106,2147646555,2147062052,2148258020,2147201014,3507,4,13,59266
